Regional Weather Roundup
Issued by NWS Sterling, VA

Home | Current Version | Previous Version | Graphics & Text | Print | Product List | Glossary On
Versions: 1 2 3 4 5 6 7 8 9 10 11 12 13 14 15 16 17 18 19 20 21 22 23 24 25 26 27 28 29 30 31 32 33 34 35 36 37 38 39 40 41 42 43 44 45 46 47 48 49 50
000
ASUS41 KLWX 221711
RWRLWX

REGIONAL WEATHER ROUNDUP
NATIONAL WEATHER SERVICE BALTIMORE MD/WASHINGTON DC
100 PM EDT TUE AUG 22 2017

Note: "FAIR" indicates few or no clouds below 12,000 feet
with no significant weather and/or obstructions to visibility.
 TC=TEMPERATURE CELSIUS

 * =Non NWS site. Station does not report precipitation (e.g. rain,
    snow, etc.), thunder, or fog.

DCZ001-MDZ009-015-VAZ040>042-051-053>054-221800-
WASHINGTON METRO

CITY           SKY/WX    TMP DP  RH WIND       PRES   REMARKS
WASHINGTON NAT MOSUNNY   88  77  69 S13       29.98F HX 100
DULLES         MOSUNNY   89  73  59 SW12      29.98F HX  97
ANDREWS AFB    SUNNY     88  73  61 S10       29.98F HX  96
FT BELVOIR     SUNNY     88  74  63 S9        29.98F HX  97
QUANTICO       MOSUNNY   89  79  72 S12       29.99F HX 104
COLLEGE PARK*  SUNNY     88  73  59 S6        29.97F HX  96
LEESBURG*      MOSUNNY   91  75  59 S10       29.99F HX 102
MANASSAS*      SUNNY     90  75  61 S10       29.99F HX 100
GAITHERSBURG*  SUNNY     91  74  57 S7        30.00F HX 100

$$

MDZ006>007-011-014-221800-
BALTIMORE METRO

CITY           SKY/WX    TMP DP  RH WIND       PRES   REMARKS
BWI AIRPORT    MOSUNNY   89  74  60 S9        29.97F HX  98
MD SCIENCE CTR   N/A     91  75  59 MISG      29.97F HX 101
MARTIN STATE   MOSUNNY   86  81  84 SE8       29.99F HX 102
ANNAPOLIS      SUNNY     90  79  70 S10       29.97F HX 106
FORT MEADE*      N/A     88  73  62 SW10      30.00F HX  96

$$

MDZ012-015-019>023-221800-
MARYLAND EASTERN SHORE

CITY           SKY/WX    TMP DP  RH WIND       PRES   REMARKS
OCEAN CITY     MOSUNNY   85  78  80 SW12      30.03F HX  96
SALISBURY      SUNNY     88  76  67 SW10      30.01F HX  99
BAY BRIDGE AP* SUNNY     90  75  62 S12       29.98F HX 100
CAMBRIDGE*     SUNNY     88  75  66 S10G16    30.00F HX  97
EASTON*        SUNNY     90  73  58 W12G17    30.03F HX  98

$$

MDZ017>025-221800-
SOUTHERN MARYLAND

CITY           SKY/WX    TMP DP  RH WIND       PRES   REMARKS
PATUXENT RIVER MOSUNNY   88  75  65 S13G20    30.00F HX  97
ST INIGOES     SUNNY     88  77  69 S13       30.00F HX 100
LEONARDTOWN*   SUNNY     88  72  58 SW10G16   30.02F HX  94

$$

MDZ003>005-221800-
NORTH CENTRAL MARYLAND

CITY           SKY/WX    TMP DP  RH WIND       PRES   REMARKS
FREDERICK*     MOSUNNY   90  72  55 SW9       30.00F HX  96
HAGERSTOWN APT MOSUNNY   89  70  53 S12G21    29.96F HX  94
WESTMINSTER*   SUNNY     90  70  51 SW8       29.99F HX  95

$$

MDZ501>502-221800-
WESTERN MARYLAND

CITY           SKY/WX    TMP DP  RH WIND       PRES   REMARKS
OAKLAND*       MOSUNNY   77  63  61 SW16G22   30.07F
CUMBERLAND*    MOSUNNY   90  66  45 S14       29.99F HX  92

$$

VAZ025>031-221800-
SHENANDOAH VALLEY

CITY           SKY/WX    TMP DP  RH WIND       PRES   REMARKS
WINCHESTER*    SUNNY     88  68  51 SW7       29.97F HX  91
FRONT ROYAL*   MOSUNNY   90  72  55 S6        29.99F HX  96
LURAY*         SUNNY     90  68  48 S7        30.00F HX  93
NEW MARKET*    SUNNY     90  66  44 SW7       29.98F HX  92
STAUNTON*      SUNNY     88  67  50 SW9       30.05F HX  91
WAYNESBORO*    MOSUNNY   88  70  54 SW10G16   30.07F HX  92

$$

WVZ021-048>050-054>055-221800-
EASTERN WEST VIRGINIA PANHANDLE

CITY           SKY/WX    TMP DP  RH WIND       PRES   REMARKS
MARTINSBURG    SUNNY     89  69  51 S9        29.96F HX  93
PETERSBURG*    MOSUNNY   92  69  45 S9        29.99F HX  97

$$

VAZ036>039-050-221800-
CENTRAL FOOTHILLS

CITY           SKY/WX    TMP DP  RH WIND       PRES   REMARKS
CHARLOTTESVILL SUNNY     92  72  51 S9G22     30.01F HX  99
CULPEPER*      SUNNY     91  72  52 S7G18     30.00F HX  99
ORANGE*        SUNNY     90  70  51 SW13      30.00F HX  95
GORDONSVILLE*  SUNNY     91  73  56 SW8       30.00F HX  98
WARRENTON*     SUNNY     92  69  47 S10       29.99F HX  96

$$

VAZ055>057-221800-
NORTH AND CENTRAL PIEDMONT

CITY           SKY/WX    TMP DP  RH WIND       PRES   REMARKS
FREDERICKSBRG* SUNNY     91  74  58 SW14      29.99F HX 100
STAFFORD*      SUNNY     88  74  62 SW9G18    30.03F HX  96

$$

NCZ024-NYZ072-PAZ021-071-VAZ022-071-221800-
OTHER REGIONAL OBSERVATIONS

CITY           SKY/WX    TMP DP  RH WIND       PRES   REMARKS
NEW YORK CITY  MOSUNNY   87  74  64 VRB5      29.97F HX  95
PHILADELPHIA   MOSUNNY   88  73  61 SW13      29.96F HX  95
PITTSBURGH     CLOUDY    84  70  62 SW18G24   29.90F
ROANOKE        MOSUNNY   89  68  49 W10       30.09F HX  93
RICHMOND       MOSUNNY   89  74  60 S15       30.03F HX  98
RALEIGH        MOSUNNY   91  71  51 VRB3      30.08F HX  97

$$

ANZ530>537-221800-
MARINE OBSERVATIONS

STATION/POSITION TIME  TEMP    WIND        PRES
                       AIR SEA DIR/SP/G
                 (UTC) (F)     (DEG/KT/KT) (MB)
THOMAS PT LIGHT  1700   83 81  160/ 10/ 10   N/A
BALT KEY BRIDGE  1642   85     190/  8/ 10 1014.8F
COVE POINT       1642   86     210/ 15/ 17 1016.4F
LEWISETTA        1642   87 84  230/ 10/ 12 1016.2F
SOLOMONS ISLAND  1642   86 82  210/ 12/ 16   N/A
PINEY POINT      1648          230/ 10/ 11   N/A

$$




USA.gov is the U.S. government's official web portal to all federal, state and local government web resources and services.